Date String (YYYY-MM-DD hh:mm:ss) UTC,Instrument flags,Ambient pressure (hPa),Sample flow (lpm),Bypass flow (lpm),Sample temperature (°C),Ambient temperature (°C),ASC tube jacket temperature (°C),LED temperature (°C),Box temperature (°C),Sample RH (%),Span deviation,Mass concentration (μg/m³),Mass concentration (μg/m³),Mass concentration (μg/m³)
DateTimeUTC,F1_M11,P_M11,Q1_M11,Q2_M11,T1_M11,T2_M11,T3_M11,T4_M11,T5_M11,U1_M11,ZSPAN_M11,X0_M11,X2_M11,X1_M11
2021-10-26 19:00:00,,0809.4,5.00,0.00,29.2,28.1,00.0,38.4,30.9,11.7,0000.0,0005.62,0000.54,0000.07
2021-10-26 19:01:00,,0809.4,5.01,0.00,29.2,28.1,00.0,38.4,30.8,11.7,0000.0,0005.57,0000.54,0000.07
2021-10-26 19:02:00,,0809.5,4.99,0.00,29.2,28.0,00.0,38.4,30.8,11.7,0000.0,0005.45,0000.53,0000.07
2021-10-26 19:03:00,,0809.6,5.01,0.00,29.2,28.1,00.0,38.4,30.9,11.7,0000.0,0003.93,0000.50,0000.07
2021-10-26 19:04:00,,0809.6,5.00,0.00,29.2,28.1,00.0,38.4,30.9,11.7,0000.0,0004.66,0000.50,0000.06
2021-10-26 19:05:00,,0809.6,5.00,0.00,29.3,28.1,00.0,38.4,30.9,11.7,0000.0,0006.00,0000.46,0000.06
2021-10-26 19:06:00,,0809.6,5.00,0.00,29.2,28.1,00.0,38.4,30.9,11.7,0000.0,0005.42,0000.38,0000.06
2021-10-26 19:07:00,,0809.5,4.99,0.00,29.2,28.1,00.0,38.4,30.9,11.8,0000.0,0004.36,0000.29,0000.06
2021-10-26 19:08:00,,0809.5,5.01,0.00,29.3,28.1,00.0,38.4,30.9,11.9,0000.0,0003.76,0000.23,0000.05
2021-10-26 19:09:00,,0809.5,4.99,0.00,29.3,28.2,00.0,38.4,31.0,11.8,0000.0,0003.68,0000.21,0000.05
2021-10-26 19:10:00,,0809.5,5.00,0.00,29.3,28.2,00.0,38.5,30.9,11.8,0000.0,0003.50,0000.20,0000.05
2021-10-26 19:11:00,,0809.5,5.00,0.00,29.3,28.2,00.0,38.5,31.0,11.9,0000.0,0004.73,0000.23,0000.05
2021-10-26 19:12:00,,0809.5,5.01,0.00,29.3,28.3,00.0,38.5,31.0,11.9,0000.0,0005.01,0000.25,0000.05
2021-10-26 19:13:00,,0809.4,5.00,0.00,29.3,28.2,00.0,38.5,31.0,11.9,0000.0,0005.04,0000.27,0000.06
2021-10-26 19:14:00,,0809.4,4.98,0.00,29.3,28.2,00.0,38.5,30.9,11.8,0000.0,0004.95,0000.30,0000.06
2021-10-26 19:15:00,,0809.3,5.01,0.00,29.3,28.2,00.0,38.5,31.0,11.8,0000.0,0004.52,0000.30,0000.06
2021-10-26 19:16:00,,0809.3,5.01,0.00,29.3,28.3,00.0,38.5,31.0,11.8,0000.0,0003.85,0000.32,0000.06
2021-10-26 19:17:00,,0809.3,5.00,0.00,29.3,28.3,00.0,38.5,30.9,11.8,0000.0,0004.15,0000.35,0000.06
2021-10-26 19:18:00,,0809.2,5.01,0.00,29.3,28.2,00.0,38.5,30.9,11.8,0000.0,0004.49,0000.44,0000.07
2021-10-26 19:19:00,,0809.2,4.99,0.00,29.3,28.2,00.0,38.5,30.9,11.8,0000.0,0004.58,0000.47,0000.07
2021-10-26 19:20:00,,0809.2,5.00,0.00,29.3,28.2,00.0,38.5,31.0,11.8,0000.0,0004.59,0000.48,0000.07
2021-10-26 19:21:00,,0809.2,5.00,0.00,29.3,28.2,00.0,38.5,30.9,11.8,0000.0,0005.42,0000.46,0000.08
2021-10-26 19:22:00,,0809.2,4.99,0.00,29.3,28.2,00.0,38.5,30.9,11.8,0000.0,0004.73,0000.44,0000.08
2021-10-26 19:23:00,,0809.2,4.99,0.00,29.3,28.2,00.0,38.5,31.0,11.8,0000.0,0004.30,0000.45,0000.08
2021-10-26 19:24:00,,0809.2,5.01,0.00,29.3,28.2,00.0,38.5,31.0,11.8,0000.0,0004.35,0000.48,0000.09
2021-10-26 19:25:00,,0809.3,5.00,0.00,29.3,28.2,00.0,38.5,31.0,11.9,0000.0,0004.37,0000.49,0000.09
2021-10-26 19:26:00,,0809.3,4.99,0.00,29.3,28.2,00.0,38.5,31.0,12.1,0000.0,0004.04,0000.50,0000.09
2021-10-26 19:27:00,,0809.3,5.01,0.00,29.3,28.2,00.0,38.5,30.9,12.2,0000.0,0003.25,0000.48,0000.09
2021-10-26 19:28:00,,0809.3,5.00,0.00,29.3,28.2,00.0,38.5,31.0,12.3,0000.0,0002.57,0000.47,0000.10
2021-10-26 19:29:00,,0809.3,4.99,0.00,29.3,28.2,00.0,38.5,31.0,12.3,0000.0,0002.29,0000.40,0000.10
2021-10-26 19:30:00,,0809.3,5.02,0.00,29.3,28.2,00.0,38.5,31.0,12.3,0000.0,0002.35,0000.40,0000.11
2021-10-26 19:31:00,,0809.4,4.98,0.00,29.3,28.1,00.0,38.5,30.9,12.2,0000.0,0002.57,0000.43,0000.12
2021-10-26 19:32:00,,0809.4,5.01,0.00,29.2,28.0,00.0,38.4,30.8,12.2,0000.0,0001.64,0000.44,0000.13
2021-10-26 19:33:00,,0809.4,5.00,0.00,29.2,28.0,00.0,38.4,30.8,12.3,0000.0,0001.30,0000.47,0000.13
2021-10-26 19:34:00,,0809.4,4.99,0.00,29.2,28.0,00.0,38.4,30.8,12.3,0000.0,0001.76,0000.52,0000.14
2021-10-26 19:35:00,,0809.4,5.00,0.00,29.2,28.1,00.0,38.4,30.8,12.3,0000.0,0002.39,0000.50,0000.14
2021-10-26 19:36:00,,0809.4,5.01,0.00,29.2,28.1,00.0,38.4,30.8,12.2,0000.0,0002.87,0000.51,0000.14
2021-10-26 19:37:00,,0809.2,4.98,0.00,29.2,28.0,00.0,38.4,30.8,12.2,0000.0,0003.59,0000.52,0000.14
2021-10-26 19:38:00,,0809.3,5.00,0.00,29.2,28.0,00.0,38.4,30.8,12.4,0000.0,0005.00,0000.55,0000.15
2021-10-26 19:39:00,,0809.3,5.00,0.00,29.2,28.0,00.0,38.4,30.8,12.4,0000.0,0006.84,0000.58,0000.15
2021-10-26 19:40:00,,0809.4,5.00,0.00,29.2,28.0,00.0,38.4,30.8,12.7,0000.0,0007.44,0000.61,0000.15
2021-10-26 19:41:00,,0809.4,4.99,0.00,29.2,28.0,00.0,38.4,30.8,12.8,0000.0,0007.75,0000.64,0000.15
2021-10-26 19:42:00,,0809.4,5.01,0.00,29.2,28.0,00.0,38.4,30.8,13.2,0000.0,0007.94,0000.67,0000.15
2021-10-26 19:43:00,,0809.4,4.99,0.00,29.1,28.0,00.0,38.4,30.8,13.6,0000.0,0008.13,0000.72,0000.15
2021-10-26 19:44:00,,0809.4,5.00,0.00,29.1,28.0,00.0,38.4,30.7,13.5,0000.0,0008.36,0000.78,0000.16
2021-10-26 19:45:00,,0809.3,5.00,0.00,29.1,28.0,00.0,38.4,30.7,13.6,0000.0,0008.23,0000.76,0000.16
2021-10-26 19:46:00,,0809.2,5.01,0.00,29.1,27.9,00.0,38.3,30.7,13.2,0000.0,0007.78,0000.74,0000.17
2021-10-26 19:47:00,,0809.2,4.99,0.00,29.1,27.8,00.0,38.3,30.7,12.8,0000.0,0007.50,0000.73,0000.18
2021-10-26 19:48:00,,0809.1,4.99,0.00,29.1,27.8,00.0,38.3,30.7,12.7,0000.0,0006.77,0000.74,0000.18
2021-10-26 19:49:00,,0809.1,5.01,0.00,29.1,27.9,00.0,38.3,30.8,13.1,0000.0,0005.28,0000.72,0000.18
2021-10-26 19:50:00,,0809.1,5.01,0.00,29.1,27.9,00.0,38.3,30.8,12.7,0000.0,0003.73,0000.68,0000.18
2021-10-26 19:51:00,,0809.1,4.99,0.00,29.1,27.9,00.0,38.3,30.8,12.6,0000.0,0003.20,0000.69,0000.19
2021-10-26 19:52:00,,0809.2,5.01,0.00,29.1,27.9,00.0,38.3,30.8,12.3,0000.0,0003.05,0000.78,0000.20
2021-10-26 19:53:00,,0809.2,4.99,0.00,29.0,27.9,00.0,38.3,30.8,12.3,0000.0,0002.49,0000.75,0000.19
2021-10-26 19:54:00,,0809.3,5.01,0.00,29.0,27.9,00.0,38.2,30.7,12.2,0000.0,0002.04,0000.69,0000.19
2021-10-26 19:55:00,,0809.2,5.01,0.00,29.0,27.9,00.0,38.2,30.5,12.4,0000.0,0001.69,0000.61,0000.18
2021-10-26 19:56:00,,0809.2,4.99,0.00,28.9,27.8,00.0,38.2,30.5,12.4,0000.0,0001.83,0000.55,0000.18
2021-10-26 19:57:00,,0809.2,5.01,0.00,28.9,27.8,00.0,38.2,30.5,12.5,0000.0,0002.08,0000.54,0000.18
2021-10-26 19:58:00,,0809.1,5.00,0.00,28.9,27.7,00.0,38.2,30.5,12.4,0000.0,0004.22,0000.54,0000.17
2021-10-26 19:59:00,,0809.1,4.99,0.00,28.9,27.7,00.0,38.2,30.5,12.0,0000.0,0004.25,0000.57,0000.17
